Location: Wavehorne
(51.0500°N, 0.8333°E)
Time: 19:58:43
(UTC+00:00)

Cosmos 468 Rocket - Pass Details

Date: 20 June 2021
Orbit: 743 x 780 km, 74.0° (Epoch: 01 August)

Event Time Altitude Azimuth Distance (km) Brightness Sun altitude
Exits shadow 01:00:55 22° 202° (SSW) 1,623 5.1 -14.2°
Maximum altitude 01:04:22 88° 112° (ESE) 766 4.0 -14.1°
Drops below altitude 10° 01:09:37 10° 25° (NNE) 2,313 7.9 -13.9°
Sets 01:12:01 0° 25° (NNE) 3,249 9.1 -13.8°
